"Time","Temp","Dewpoint","Humidity","Pressure","Direction","Speed","Gust","Precip","PrecipRate"
"00:04:58","68.7","66.1","91.1","29.95","338","0","0","0.00","0.00"
"00:09:57","68.7","66.3","92","29.95","338","0","0","0.00","0.00"
"00:14:56","68.5","66.1","92","29.95","338","0","0","0.00","0.00"
"00:19:56","68.3","65.9","92","29.95","338","0","0","0.00","0.00"
"00:24:56","68.1","65.7","92","29.95","338","0","0","0.00","0.00"
"00:29:57","68","65.7","92.3","29.95","338","0","1.2","0.00","0.00"
"00:34:58","67.9","65.8","93","29.95","338","0.1","1.2","0.00","0.00"
"00:39:58","67.9","65.8","93","29.95","338","0","0","0.00","0.00"
"00:44:56","67.8","65.7","93","29.95","338","0","0","0.00","0.00"
"00:49:56","67.8","65.7","93","29.95","338","0.2","1.2","0.00","0.00"
"00:54:57","67.7","65.6","93","29.95","338","0","0","0.00","0.00"
"00:59:57","67.5","65.4","93","29.95","338","0","0","0.00","0.00"
"01:04:57","67.3","65.2","93","29.95","338","0","0","0.00","0.00"
"01:09:57","67.1","65","93","29.95","338","0","0","0.00","0.00"
"01:14:58","67.1","65.2","93.9","29.95","338","0","0","0.00","0.00"
"01:19:59","67","65.2","94","29.95","338","0.4","2.4","0.00","0.00"
"01:24:59","66.9","65.1","94","29.95","338","0","1.2","0.00","0.00"
"01:29:59","66.9","65.1","94","29.95","338","0","0","0.00","0.00"
"01:34:56","66.8","65","94","29.95","338","0","0","0.00","0.00"
"01:39:57","66.7","64.9","94","29.95","338","0","1.2","0.00","0.00"
"01:44:57","66.6","64.8","94","29.95","338","0","0","0.00","0.00"
"01:49:57","66.5","64.7","94","29.94","338","0","0","0.00","0.00"
"01:54:57","66.4","64.6","94","29.94","338","0","1.2","0.00","0.00"
"01:59:57","66.3","64.8","94.8","29.94","338","0.3","1.2","0.00","0.00"
"02:04:57","66.3","64.8","95","29.94","338","0","0","0.00","0.00"
"02:09:57","66.3","64.7","94.9","29.94","338","0","0","0.00","0.00"
"02:14:58","66.1","64.3","94","29.94","338","0","0","0.00","0.00"
"02:19:58","66","64.2","94","29.94","338","0","0","0.00","0.00"
"02:24:58","65.9","64.1","94","29.94","338","0","0","0.00","0.00"
"02:29:58","65.8","64","94.2","29.95","338","0","0","0.00","0.00"
"02:34:58","65.6","64.1","95","29.95","338","0","0","0.00","0.00"
"02:39:59","65.6","64.1","95","29.95","338","0","0","0.00","0.00"
"02:44:58","65.6","64.1","95","29.95","338","0","0","0.00","0.00"
"02:49:59","65.7","64.2","95","29.95","338","0","0","0.00","0.00"
"02:54:58","65.8","64.3","95","29.95","338","0","0","0.00","0.00"
"02:59:58","65.9","64.4","95","29.95","338","0","0","0.00","0.00"
"03:04:56","65.9","64.4","95","29.94","338","0","0","0.00","0.00"
"03:09:57","65.9","64.4","95","29.94","338","0","0","0.00","0.00"
"03:14:58","66","64.5","95","29.94","338","0","0","0.00","0.00"
"03:19:58","66.1","64.6","95","29.94","338","0","0","0.00","0.00"
"03:24:58","66.1","64.6","95","29.94","338","0","0","0.00","0.00"
"03:29:58","66.1","64.6","95","29.94","338","0","0","0.00","0.00"
"03:34:58","66","64.5","95","29.94","338","0","0","0.00","0.00"
"03:39:56","65.9","64.4","95","29.94","338","0","0","0.00","0.00"
"03:44:56","65.9","64.4","95","29.94","338","0","0","0.00","0.00"
"03:49:57","65.9","64.4","95","29.94","338","0","0","0.00","0.00"
"03:54:59","65.8","64.3","95","29.94","338","0","0","0.00","0.00"
"03:59:57","65.7","64.2","95","29.94","338","0","0","0.00","0.00"
"04:04:58","65.6","64.1","95","29.93","338","0","0","0.00","0.00"
"04:09:57","65.5","64","95","29.93","338","0","0","0.00","0.00"
"04:14:59","65.5","64","95","29.93","338","0","0","0.00","0.00"
"04:19:59","65.4","63.9","95","29.93","338","0","0","0.00","0.00"
"04:24:59","65.4","63.9","95","29.93","338","0","0","0.00","0.00"
"04:29:59","65.4","64.1","95.5","29.93","338","0","0","0.00","0.00"
"04:34:59","65.5","64.3","95.9","29.93","338","0","0","0.00","0.00"
"04:39:56","65.6","64.4","96","29.93","338","0","0","0.00","0.00"
"04:44:56","65.6","64.4","96","29.93","338","0","0","0.00","0.00"
"04:49:56","65.7","64.5","96","29.93","338","0","0","0.00","0.00"
"04:54:57","65.7","64.4","95.7","29.93","338","0","0","0.00","0.00"
"04:59:57","65.6","64.1","95","29.93","338","0","0","0.00","0.00"
"05:04:57","65.6","64.1","95","29.93","338","0","0","0.00","0.00"
"05:09:58","65.6","64.1","95","29.93","338","0","0","0.00","0.00"
"05:14:58","65.6","64.1","95","29.94","338","0","0","0.00","0.00"
"05:19:58","65.6","64.1","95","29.94","338","0","0","0.00","0.00"
"05:24:58","65.5","64","95","29.94","338","0","0","0.00","0.00"
"05:29:58","65.4","63.9","95","29.94","338","0","0","0.00","0.00"
"05:34:58","65.4","63.9","95","29.94","338","0","0","0.00","0.00"
"05:39:59","65.4","63.9","95","29.94","338","0","0","0.00","0.00"
"05:44:59","65.3","63.8","95","29.94","338","0","0","0.00","0.00"
"05:49:59","65.3","63.8","95","29.94","338","0","0","0.00","0.00"
"05:54:59","65.2","63.7","95","29.94","338","0","0","0.00","0.00"
"05:59:59","65.2","63.7","95","29.94","338","0","0","0.00","0.00"
"06:04:56","65.1","63.6","95","29.94","338","0","0","0.00","0.00"
"06:09:57","65","63.5","95","29.94","338","0","0","0.00","0.00"
"06:14:58","64.9","63.4","95","29.94","338","0","0","0.00","0.00"
"06:19:58","64.8","63.3","95","29.94","338","0","0","0.00","0.00"
"06:24:58","64.7","63.2","95","29.94","338","0","0","0.00","0.00"
"06:29:58","64.7","63.2","95","29.94","338","0","0","0.00","0.00"
"06:34:58","64.7","63.2","95","29.94","338","0","0","0.00","0.00"
"06:39:56","64.6","63.1","95.2","29.94","338","0","0","0.00","0.00"
"06:44:56","64.5","63.3","95.8","29.95","338","0","0","0.00","0.00"
"06:49:56","64.4","63.2","95.8","29.95","338","0","0","0.00","0.00"
"06:54:56","64.4","63.2","96","29.95","338","0","0","0.00","0.00"
"06:59:56","64.4","63.2","96","29.95","338","0","0","0.00","0.00"
"07:04:56","64.4","63.2","96","29.95","338","0","0","0.00","0.00"
"07:09:56","64.6","63.4","96","29.95","338","0","0","0.00","0.00"
"07:14:56","64.8","63.6","96","29.96","338","0","0","0.00","0.00"
"07:19:56","65.1","63.9","96","29.96","338","0","0","0.00","0.00"
"07:24:56","65.4","64.2","96","29.96","338","0","0","0.00","0.00"
"07:29:56","65.7","64.4","95.6","29.96","338","0","0","0.00","0.00"
"07:34:59","66.3","64.7","94.8","29.96","339","1.5","4.8","0.00","0.00"
"07:39:58","66.7","64.9","94","29.96","340","1.2","4.6","0.00","0.00"
"07:44:57","67.1","65.1","93.2","29.96","340","1","3.6","0.00","0.00"
"07:49:56","67.4","65.3","93","29.96","340","0.2","2.4","0.00","0.00"
"07:54:59","67.6","65.3","92.2","29.96","340","0","1.2","0.00","0.00"
"07:59:59","67.9","65.5","91.9","29.96","340","0.5","3.6","0.00","0.00"
"08:04:59","68.4","66","91.9","29.96","340","0.2","3.6","0.00","0.00"
"08:09:59","69","66.1","90.5","29.96","340","1.2","3.6","0.00","0.00"
"08:14:59","69.5","66.8","91","29.96","340","0","1.2","0.00","0.00"
"08:19:58","70.2","67.1","89.8","29.96","340","0.1","1.2","0.00","0.00"
"08:24:57","70.8","67.2","88.3","29.96","340","0.1","1.2","0.00","0.00"
"08:29:56","71.3","67.4","87.6","29.96","340","0.2","1.2","0.00","0.00"
"08:34:59","71.8","67.6","86.8","29.95","340","0.1","1.2","0.00","0.00"
"08:39:59","72.3","68.1","86.7","29.95","340","0","0","0.00","0.00"
"08:44:58","72.9","68.3","85.4","29.95","340","0","0","0.00","0.00"
"08:49:57","73.4","68.9","85.9","29.95","340","0","1.2","0.00","0.00"
"08:54:56","74","69.1","84.6","29.95","340","0.2","1.2","0.00","0.00"
"08:59:59","74.5","69","82.9","29.95","340","0.1","1.2","0.00","0.00"
"09:04:58","75.2","69.3","82","29.95","300","0.9","3.6","0.00","0.00"
"09:09:58","75.8","69.6","81.2","29.95","260","0.4","2.4","0.00","0.00"
"09:14:58","76.6","69.9","79.9","29.95","207","2","4.8","0.00","0.00"
"09:19:58","77.1","69.9","78.5","29.94","165","2.3","4.8","0.00","0.00"
"09:24:59","77.8","70.5","78.1","29.94","132","1","4.6","0.00","0.00"
"09:29:57","78.4","70.5","76.8","29.94","180","2.2","6","0.00","0.00"
"09:34:56","78.6","70.7","76.7","29.94","163","2.7","7.2","0.00","0.00"
"09:39:56","78.7","70.9","77.1","29.94","190","2.7","7.2","0.00","0.00"
"09:44:56","78.9","71.4","77.8","29.94","190","2.6","7.2","0.00","0.00"
"09:49:57","79.3","71.4","76.9","29.93","187","2.6","5.8","0.00","0.00"
"09:54:57","79.6","71.7","76.7","29.93","175","3.1","7.2","0.00","0.00"
"09:59:57","80.1","72.2","77.2","29.93","175","2.4","7.2","0.00","0.00"
"10:04:58","80.5","72.6","77","29.93","171","2.7","7.2","0.00","0.00"
"10:09:59","80.7","72.7","76.9","29.93","153","2.7","6.9","0.00","0.00"
"10:14:57","80.9","73","77.1","29.93","137","2.5","7.2","0.00","0.00"
"10:19:57","81.1","72.9","76.3","29.92","171","3","8.4","0.00","0.00"
"10:24:56","81.2","72.9","75.9","29.92","186","4.2","7.2","0.00","0.00"
"10:29:57","81.6","73.5","76.5","29.92","198","1.6","6","0.00","0.00"
"10:34:57","82.3","73.8","75.5","29.92","190","3","7.2","0.00","0.00"
"10:39:58","82.2","73","73.8","29.92","173","4.4","10.8","0.00","0.00"
"10:44:58","82","73","74.3","29.92","175","4.5","10.8","0.00","0.00"
"10:49:58","81.9","72.9","74.3","29.92","156","4.6","12","0.00","0.00"
"10:54:59","82.8","73.5","73.6","29.92","182","4.3","8.4","0.00","0.00"
"10:59:59","83.8","74","72.6","29.92","178","4.9","12","0.00","0.00"
"11:04:57","83.1","73","71.6","29.92","199","5.1","12","0.00","0.00"
"11:09:58","82.6","73.4","73.8","29.92","206","5","8.4","0.00","0.00"
"11:14:56","82.6","73.2","73.3","29.92","203","3.7","8.4","0.00","0.00"
"11:19:58","82.9","73.6","73.4","29.91","195","4.4","10.8","0.00","0.00"
"11:24:59","84.4","74.7","72.8","29.91","196","3.7","12","0.00","0.00"
"11:29:56","84.1","73.1","69.6","29.91","187","4.3","9.6","0.00","0.00"
"11:34:57","83.7","73.2","70.7","29.91","209","4.2","8.4","0.00","0.00"
"11:39:59","84.3","73.5","70.3","29.91","203","4.5","9.6","0.00","0.00"
"11:44:56","84","72.9","69.4","29.91","207","5.3","13.2","0.00","0.00"
"11:49:57","84.2","73.2","69.6","29.90","188","5","13.2","0.00","0.00"
"11:54:57","84.6","74.3","71.3","29.90","189","3.8","11.5","0.00","0.00"
"11:59:57","84.5","73","68.6","29.90","183","3.6","8.4","0.00","0.00"
"12:04:59","83.4","72.2","68.9","29.90","165","5.1","13.2","0.00","0.00"
"12:09:56","83.9","73.6","71.4","29.90","175","3.8","10.8","0.00","0.00"
"12:14:58","85.9","74.6","69.2","29.90","171","4.3","10.8","0.00","0.00"
"12:19:58","86.1","74.2","67.7","29.90","163","3.8","8.4","0.00","0.00"
"12:24:59","86","73.5","66.4","29.90","168","3.7","12","0.00","0.00"
"12:29:56","86.1","73.7","66.7","29.90","182","4.7","12","0.00","0.00"
"12:34:56","86","72.9","65.1","29.89","197","5.5","12","0.00","0.00"
"12:39:58","86.6","73.5","65.3","29.89","187","4.3","13.2","0.00","0.00"
"12:44:59","86.2","72.3","63.6","29.89","180","4.5","8.4","0.00","0.00"
"12:49:58","85.9","71.4","62.2","29.88","196","5.1","12","0.00","0.00"
"12:54:58","86","72.2","63.5","29.88","208","4.2","10.8","0.00","0.00"
"12:59:59","86.3","72.2","62.9","29.88","176","4.3","13.2","0.00","0.00"
"13:04:56","86.6","72","61.9","29.87","187","4.1","8.4","0.00","0.00"
"13:09:58","87.1","72.5","62.1","29.87","201","5.1","12","0.00","0.00"
"13:14:56","87.8","70.8","57.4","29.87","201","7.4","17.3","0.00","0.00"
"13:19:57","87.6","71.4","58.8","29.87","200","5.8","16.1","0.00","0.00"
"13:24:58","87.9","72.2","59.9","29.87","186","4.6","10.8","0.00","0.00"
"13:29:59","88.4","71.9","58.3","29.87","199","6.6","17.3","0.00","0.00"
"13:34:56","88.1","72.4","59.8","29.86","172","5.8","13.2","0.00","0.00"
"13:39:59","88.7","72.4","58.9","29.86","186","5.3","8.4","0.00","0.00"
"13:44:56","89","72.1","57.7","29.86","186","5.3","10.8","0.00","0.00"
"13:49:58","89.4","71.8","56.2","29.85","204","6.2","14.4","0.00","0.00"
"13:54:58","88.7","70","54.2","29.85","182","7.3","15","0.00","0.00"
"13:59:56","89","71.3","56","29.86","179","6.1","12","0.00","0.00"
"14:04:57","89.3","72","56.9","29.86","204","6","13.2","0.00","0.00"
"14:09:59","89.4","72.1","56.9","29.86","188","4.3","8.4","0.00","0.00"
"14:14:57","89.2","71.8","56.5","29.86","183","5.6","13.2","0.00","0.00"
"14:19:58","89.3","70.8","54.5","29.84","176","5.3","12.7","0.00","0.00"
"14:24:56","89.5","71.1","54.8","29.84","197","4.8","8.4","0.00","0.00"
"14:29:57","89.9","72.3","56.3","29.84","185","5.5","13.2","0.00","0.00"
"14:34:58","89.7","70.3","53","29.84","196","5.5","13.2","0.00","0.00"
"14:39:57","88.9","70.9","55.6","29.84","208","7","16.1","0.00","0.00"
"14:44:58","88.5","70.5","55.5","29.84","198","4.8","10.8","0.00","0.00"
"14:49:56","87.7","70.7","57.3","29.83","195","4.1","8.1","0.00","0.00"
"14:54:56","89","71.5","56.5","29.83","188","4.8","12","0.00","0.00"
"14:59:58","89.8","71.6","55.1","29.83","174","4.7","12","0.00","0.00"
"15:04:56","90.1","71.3","54.2","29.83","181","4.7","12","0.00","0.00"
"15:09:57","90.4","71.1","53.4","29.83","185","4.6","12","0.00","0.00"
"15:14:59","90.6","71.1","52.9","29.83","203","5.9","16.8","0.00","0.00"
"15:19:57","89.6","69.7","52.1","29.82","194","5.5","17.3","0.00","0.00"
"15:24:58","89.6","70.3","53.1","29.82","203","5.3","9.6","0.00","0.00"
"15:29:59","90.1","70.8","53.2","29.82","171","4","13.2","0.00","0.00"
"15:34:57","90.4","70.4","52","29.81","191","5","12","0.00","0.00"
"15:39:59","90.5","69.8","50.9","29.81","196","6.1","13.2","0.00","0.00"
"15:44:57","90","69.5","51","29.81","183","5.6","12","0.00","0.00"
"15:49:58","89.9","69.3","50.8","29.81","207","6.5","13.2","0.00","0.00"
"15:54:59","90.6","70.8","52.4","29.81","216","4.3","10.8","0.00","0.00"
"15:59:56","91","70.5","51.2","29.81","223","5.8","15","0.00","0.00"
"16:04:58","90.6","70.1","51.1","29.80","204","4.8","8.4","0.00","0.00"
"16:09:59","90.1","69.4","50.8","29.80","191","5.1","12","0.00","0.00"
"16:14:57","90.3","69.3","50.2","29.80","186","6.1","12","0.00","0.00"
"16:19:58","90.9","70","50.5","29.80","188","4.9","10.8","0.00","0.00"
"16:24:59","91","69.2","49","29.80","185","6.4","14.4","0.00","0.00"
"16:29:57","90.7","69.2","49.5","29.80","166","4.9","15","0.00","0.00"
"16:34:57","91.1","69.4","49.2","29.80","187","6.9","16.1","0.00","0.00"
"16:39:56","91.3","69.9","49.7","29.80","208","5.3","12.7","0.00","0.00"
"16:44:57","90.7","69.1","49.5","29.80","188","6.9","15","0.00","0.00"
"16:49:58","90.1","69.6","51.2","29.80","194","5.4","10.8","0.00","0.00"
"16:54:59","89.8","68.9","50.3","29.80","191","5","13.2","0.00","0.00"
"16:59:57","90.2","69.7","51.2","29.80","185","4.5","8.4","0.00","0.00"
"17:04:59","90.6","69.6","50.2","29.80","206","5.3","9.6","0.00","0.00"
"17:09:56","90.9","69.8","50.2","29.80","200","4.6","12","0.00","0.00"
"17:14:58","91.1","70.3","50.6","29.80","192","4.5","12","0.00","0.00"
"17:19:56","91.4","69.9","49.6","29.79","187","4.3","8.4","0.00","0.00"
"17:24:57","91.6","69.9","49.4","29.79","159","3.9","12","0.00","0.00"
"17:29:58","91.6","69.6","48.8","29.79","174","4.7","12","0.00","0.00"
"17:34:59","91.1","69","48.5","29.78","185","6","15","0.00","0.00"
"17:39:58","90.7","69.1","49.4","29.78","186","5.3","15","0.00","0.00"
"17:44:59","90.6","69.2","49.6","29.78","190","4.9","12","0.00","0.00"
"17:49:56","90.8","69.1","49.3","29.78","197","6.4","14.4","0.00","0.00"
"17:54:57","90.7","69.4","49.9","29.78","203","5.9","17.3","0.00","0.00"
"17:59:59","90.7","69.9","50.8","29.78","176","4.9","8.4","0.00","0.00"
"18:04:56","90.7","70.1","51.1","29.78","171","3.8","13.2","0.00","0.00"
"18:09:58","90.4","69.2","50","29.78","171","5.7","15","0.00","0.00"
"18:14:56","90.2","69.4","50.7","29.78","176","4.8","12","0.00","0.00"
"18:19:58","89.8","69.6","51.4","29.78","187","3.9","10.4","0.00","0.00"
"18:24:59","89.4","69.1","51.3","29.78","186","4.3","12","0.00","0.00"
"18:29:56","88.7","68.5","51.5","29.78","168","4.6","8.4","0.00","0.00"
"18:34:57","88.4","68.6","52","29.78","172","5","12","0.00","0.00"
"18:39:56","88.3","68.7","52.5","29.78","194","5.6","16.1","0.00","0.00"
"18:44:57","88","68.7","52.9","29.78","187","5.5","13.2","0.00","0.00"
"18:49:58","87.7","68.7","53.4","29.78","177","4","12","0.00","0.00"
"18:54:59","87.5","68.5","53.5","29.78","178","4.3","13.2","0.00","0.00"
"18:59:57","87.4","68.8","54.2","29.78","187","4.8","12.7","0.00","0.00"
"19:04:59","87.3","68.8","54.3","29.78","188","2.5","6.9","0.00","0.00"
"19:09:56","87.2","68.8","54.7","29.78","158","3.6","7.2","0.00","0.00"
"19:14:59","86.9","68.6","54.6","29.78","178","4.1","8.4","0.00","0.00"
"19:19:56","86.8","68.8","55.3","29.78","195","2.7","8.1","0.00","0.00"
"19:24:58","86.6","68.7","55.3","29.78","178","2.1","6","0.00","0.00"
"19:29:59","86.4","68.5","55.4","29.78","156","2.8","6","0.00","0.00"
"19:34:56","86.4","68.3","55","29.77","150","3.2","6","0.00","0.00"
"19:39:57","86.2","68.8","56.2","29.77","154","2.4","5.8","0.00","0.00"
"19:44:59","86.1","69.3","57.5","29.78","154","2.3","4.8","0.00","0.00"
"19:49:57","85.7","69.5","58.6","29.78","141","2.8","7.2","0.00","0.00"
"19:54:59","85.4","69.5","59.3","29.78","160","3.6","6.9","0.00","0.00"
"19:59:57","85.1","69.7","60","29.78","151","1.7","5.8","0.00","0.00"
"20:04:59","84.9","69.8","60.7","29.78","172","2.8","7.2","0.00","0.00"
"20:09:57","84.6","69.8","61.2","29.78","166","2.5","7.2","0.00","0.00"
"20:14:57","84.5","70","62","29.78","156","2.6","6","0.00","0.00"
"20:19:59","84.3","70","62.2","29.77","142","1.8","3.6","0.00","0.00"
"20:24:57","84.1","70","62.8","29.77","143","1.8","3.6","0.00","0.00"
"20:29:59","83.9","70.1","63.4","29.77","144","1","2.4","0.00","0.00"
"20:34:57","83.6","70.1","64","29.77","153","2.1","7.2","0.00","0.00"
"20:39:56","83.4","70","64.2","29.77","170","1.2","6.9","0.00","0.00"
"20:44:58","83.1","70.1","65","29.78","157","2.2","6","0.00","0.00"
"20:49:56","82.8","70.3","66","29.78","157","1.6","6","0.00","0.00"
"20:54:58","82.5","70.4","66.8","29.78","164","2","5.8","0.00","0.00"
"20:59:56","82.2","70.4","67.5","29.78","146","1.9","6","0.00","0.00"
"21:04:58","82","70.6","68.4","29.78","148","1.6","3.6","0.00","0.00"
"21:09:56","81.7","70.8","69.5","29.78","152","1.4","3.6","0.00","0.00"
"21:14:59","81.6","71.3","71","29.78","143","1.5","3.6","0.00","0.00"
"21:19:57","81.4","71.5","72","29.78","153","2.1","6","0.00","0.00"
"21:24:59","81.3","71.8","73","29.78","155","1.6","6","0.00","0.00"
"21:29:57","81.1","71.8","73.6","29.78","150","1.1","4.8","0.00","0.00"
"21:34:59","80.9","72.1","74.6","29.78","166","2.4","7.2","0.00","0.00"
"21:39:58","80.9","72.3","75.3","29.78","158","2.5","6.9","0.00","0.00"
"21:44:56","80.8","72.5","76","29.78","165","2.8","7.2","0.00","0.00"
"21:49:58","80.8","72.7","76.6","29.77","166","2.1","6.9","0.00","0.00"
"21:54:56","80.7","72.8","77","29.77","140","1.8","7.2","0.00","0.00"
"21:59:58","80.6","73","77.8","29.77","151","2.5","10.8","0.00","0.00"
"22:04:56","80.5","73","78","29.77","156","2.6","6","0.00","0.00"
"22:09:58","80.4","72.9","78","29.77","177","1.1","4.8","0.00","0.00"
"22:14:57","80.3","73","78.6","29.77","153","3.6","7.2","0.00","0.00"
"22:19:55","80.3","73.2","79","29.76","154","2.1","6","0.00","0.00"
"22:24:59","80.2","73.1","79","29.76","139","2.2","5.8","0.00","0.00"
"22:29:57","80","72.9","79","29.76","139","1.4","3.6","0.00","0.00"
"22:34:59","79.9","72.8","79.2","29.76","146","1.4","6","0.00","0.00"
"22:39:58","79.6","72.9","80","29.76","170","3.1","6","0.00","0.00"
"22:44:56","79.4","72.9","80.5","29.76","140","2.6","7.2","0.00","0.00"
"22:49:59","79.4","73.1","81","29.76","137","2","4.8","0.00","0.00"
"22:54:57","79.3","73","81","29.76","138","1.2","3.5","0.00","0.00"
"22:59:59","79.1","72.8","81","29.76","143","2.3","4.8","0.00","0.00"
"23:04:58","79","73","81.8","29.75","151","1.6","4.8","0.00","0.00"
"23:09:56","78.9","72.9","82","29.75","154","1.1","2.4","0.00","0.00"
"23:14:57","78.7","72.7","82","29.75","154","1","2.4","0.00","0.00"
"23:19:58","78.6","72.8","82.5","29.75","153","1.3","3.6","0.00","0.00"
"23:24:58","78.5","72.8","82.9","29.75","153","0.1","1.2","0.00","0.00"
"23:29:59","78.2","72.6","83","29.75","153","0.3","2.4","0.00","0.00"
"23:34:59","77.8","72.3","83.2","29.75","153","0.3","2.4","0.00","0.00"
"23:39:57","77.5","72.3","84","29.75","153","0.2","1.2","0.00","0.00"
"23:44:58","77.2","72","84","29.75","153","0.5","2.4","0.00","0.00"
